FW4376 Weather Reports


time (UTC)temp
C
wind
direction
speed
KPH
gust
KPH
rain 1hr
cm
rain 24hr
cm
rain mn
cm
humidity
%
barometer
mb
20240222114523 17 223 8.0 17.7 0.00 0.00 0.00 85 1007.6
20240222113021 17 229 6.4 24.1 0.00 0.00 0.00 84 1007.7
20240222111543 17 282 8.0 25.7 0.00 0.00 0.00 84 1007.7
20240222110018 17 232 6.4 22.5 0.00 0.00 0.00 84 1008.0
20240222104520 17 255 6.4 22.5 0.00 0.00 0.00 84 1007.7
20240222103033 17 291 8.0 25.7 0.00 0.00 0.00 84 1007.9
20240222101524 17 258 6.4 22.5 0.00 0.00 0.00 84 1008.1
20240222100009 17 243 6.4 20.9 0.00 0.00 0.00 84 1008.5
20240222094507 17 274 6.4 19.3 0.00 0.00 0.00 83 1008.9
20240222093003 17 278 4.8 19.3 0.00 0.00 0.00 83 1009.1
20240222091501 17 290 8.0 17.7 0.00 0.00 0.00 83 1009.4
20240222090101 17 227 8.0 19.3 0.00 0.00 0.00 83 1009.4
20240222084557 17 297 8.0 20.9 0.00 0.00 0.00 83 1009.6
20240222083058 17 236 6.4 22.5 0.00 0.00 0.00 83 1010.0
20240222081552 17 174 4.8 17.7 0.00 0.00 0.00 83 1010.3
20240222080053 17 230 8.0 20.9 0.00 0.00 0.00 82 1010.3
20240222074549 17 257 9.7 27.4 0.00 0.00 0.00 82 1010.4
20240222073050 17 295 4.8 17.7 0.00 0.00 0.00 82 1010.5
20240222071556 17 285 6.4 24.1 0.00 0.00 0.00 82 1010.5
20240222070049 17 296 6.4 25.7 0.00 0.00 0.00 82 1010.4
20240222064545 17 239 8.0 24.1 0.00 0.00 0.00 82 1010.4
20240222063105 17 98 8.0 22.5 0.00 0.00 0.00 82 1010.3
20240222061545 17 237 8.0 20.9 0.00 0.00 0.00 82 1010.7
20240222060040 17 259 14.5 29.0 0.00 0.00 0.00 82 1010.7
20240222054543 17 167 8.0 24.1 0.00 0.00 0.00 82 1010.4
20240222053036 17 250 6.4 27.4 0.00 0.00 0.00 81 1010.4
20240222051557 18 254 4.8 12.9 0.00 0.00 0.00 81 1010.6
20240222050135 18 96 4.8 14.5 0.00 0.00 0.00 80 1010.7
20240222044535 18 204 6.4 16.1 0.00 0.00 0.00 80 1010.7
20240222043034 18 171 3.2 12.9 0.00 0.00 0.00 79 1010.7
20240222041533 18 162 6.4 14.5 0.00 0.00 0.00 78 1010.7
20240222040039 19 302 4.8 22.5 0.00 0.00 0.00 78 1010.6
20240222034530 19 295 4.8 16.1 0.00 0.00 0.00 77 1010.5
20240222033030 19 155 4.8 16.1 0.00 0.00 0.00 76 1010.6
20240222031530 20 128 3.2 12.9 0.00 0.00 0.00 75 1010.7
20240222030029 20 135 3.2 14.5 0.00 0.00 0.00 74 1010.8
20240222024528 20 181 4.8 11.3 0.00 0.00 0.00 73 1010.8
20240222023033 20 165 1.6 11.3 0.00 0.00 0.00 72 1010.8
20240222021532 20 163 4.8 14.5 0.00 0.00 0.00 71 1011.1
20240222020027 20 236 3.2 12.9 0.00 0.00 0.00 71 1010.7
20240222014535 20 143 3.2 12.9 0.00 0.00 0.00 70 1010.7
20240222013029 21 220 3.2 11.3 0.00 0.00 0.00 69 1010.8
20240222011524 21 191 4.8 14.5 0.00 0.00 0.00 67 1010.5
20240222010024 21 160 3.2 12.9 0.00 0.00 0.00 65 1010.6
20240222004522 22 90 6.4 16.1 0.00 0.00 0.00 62 1010.6
20240222003025 22 108 3.2 12.9 0.00 0.00 0.00 61 1010.7
20240222001521 22 110 4.8 12.9 0.00 0.00 0.00 60 1010.3
20240222000023 23 246 4.8 17.7 0.00 0.00 0.00 58 1010.4
20240221234517 23 250 4.8 16.1 0.00 0.00 0.00 56 1010.7
20240221233024 24 90 6.4 24.1 0.00 0.00 0.00 55 1010.7
20240221231516 24 177 9.7 20.9 0.00 0.00 0.00 54 1010.6
20240221230014 25 167 8.0 25.7 0.00 0.00 0.00 53 1010.7
20240221224515 25 220 6.4 24.1 0.00 0.00 0.00 52 1010.8
20240221223010 25 127 6.4 20.9 0.00 0.00 0.00 52 1011.1
20240221221509 26 162 9.7 25.7 0.00 0.00 0.00 50 1011.2
20240221220008 26 233 8.0 20.9 0.00 0.00 0.00 51 1011.8
20240221214509 26 231 8.0 19.3 0.00 0.00 0.00 52 1012.1
20240221213004 26 245 8.0 30.6 0.00 0.00 0.00 51 1012.2
20240221211502 26 235 8.0 24.1 0.00 0.00 0.00 52 1012.2
20240221210059 26 112 6.4 16.1 0.00 0.00 0.00 50 1012.6
20240221204624 26 131 8.0 27.4 0.00 0.00 0.00 49 1013.2
20240221203053 26 75 6.4 19.3 0.00 0.00 0.00 51 1013.6
20240221201551 25 70 9.7 19.3 0.00 0.00 0.00 52 1014.0
20240221200110 25 229 6.4 25.7 0.00 0.00 0.00 53 1014.3
20240221194554 25 242 8.0 19.3 0.00 0.00 0.00 54 1014.4
20240221193042 25 269 6.4 20.9 0.00 0.00 0.00 54 1014.7
20240221191539 25 255 6.4 22.5 0.00 0.00 0.00 56 1015.1
20240221190038 24 281 9.7 27.4 0.00 0.00 0.00 58 1015.6
20240221184542 24 245 6.4 20.9 0.00 0.00 0.00 60 1016.0
20240221183029 23 275 6.4 19.3 0.00 0.00 0.00 61 1016.5
20240221181527 23 255 4.8 17.7 0.00 0.00 0.00 62 1016.9
20240221180030 22 248 6.4 24.1 0.00 0.00 0.00 65 1017.2
20240221174520 22 197 6.4 20.9 0.00 0.00 0.00 66 1017.4
20240221173022 22 264 8.0 20.9 0.00 0.00 0.00 67 1017.7
20240221171513 21 240 6.4 19.3 0.00 0.00 0.00 70 1017.9
20240221170011 21 160 9.7 20.9 0.00 0.00 0.00 71 1018.2
20240221164510 20 207 4.8 20.9 0.00 0.00 0.00 73 1018.3
20240221163004 20 275 8.0 24.1 0.00 0.00 0.00 76 1018.3
20240221161502 18 255 9.7 25.7 0.00 0.00 0.00 78 1018.6
20240221160059 18 300 11.3 27.4 0.00 0.00 0.00 80 1018.6
20240221154556 17 94 9.7 19.3 0.00 0.00 0.00 83 1018.8
20240221153052 17 257 6.4 17.7 0.00 0.00 0.00 85 1019.0
20240221151550 16 335 8.0 17.7 0.00 0.00 0.00 86 1018.9
20240221150047 16 290 4.8 20.9 0.00 0.00 0.00 88 1019.0
20240221144545 16 249 4.8 16.1 0.00 0.00 0.00 89 1019.0
20240221143046 16 221 4.8 16.1 0.00 0.00 0.00 90 1018.9
20240221141543 16 205 6.4 16.1 0.00 0.00 0.00 91 1018.8
20240221140043 15 152 6.4 16.1 0.00 0.00 0.00 92 1018.7
20240221134544 15 256 4.8 17.7 0.00 0.00 0.00 92 1018.7
20240221133045 15 13 6.4 14.5 0.00 0.00 0.00 92 1018.7
20240221131541 15 252 3.2 16.1 0.00 0.00 0.00 92 1018.8
20240221130046 15 256 4.8 17.7 0.00 0.00 0.00 92 1018.8
20240221124542 15 239 6.4 19.3 0.00 0.00 0.00 93 1018.6
20240221123038 15 246 3.2 22.5 0.00 0.00 0.00 93 1018.6
20240221121538 15 243 4.8 22.5 0.00 0.00 0.00 93 1018.6
20240221120048 14 263 3.2 11.3 0.00 0.00 0.00 94 1018.4